Location: Sebastopol
(38.4021°N, 122.8239°W)
Time: 14:30:29
(UTC+00:00)

Cosmos 1726 Rocket - Pass Details

Date: 29 October 2020
Orbit: 603 x 629 km, 82.5° (Epoch: 01 December)

Event Time Altitude Azimuth Distance (km) Brightness Sun altitude
Rises 12:56:57 0° 351° (N) 2,922 6.9 -19.8°
Reaches altitude 10° 12:59:11 10° 351° (N) 2,012 6.1 -19.3°
Maximum altitude 13:03:40 82° 264° (W) 640 3.5 -18.4°
Drops below altitude 10° 13:08:06 10° 177° (S) 1,998 6.2 -17.6°
Sets 13:10:19 0° 177° (S) 2,899 7.1 -17.1°
